• In Latvia
  • List of Countries
  • For 7 days
  • Water Temperature
  • Satellite Maps
  • Weather Map
  • Weather Widgets
  • user-avatar
    Login

    Hourly Weather Ainazi

    Today, 13 December, Wednesday

    Time Temperature Precipitation Wind Pressure Humidity
    00:00 +2°C° 0.9 mm 9 mps 742 mmHg 84%
    01:00 +1°C° 0.9 mm 8 mps 742 mmHg 85%
    02:00 0°C° 0.9 mm 8 mps 743 mmHg 85%
    03:00 0°C° 0.4 mm 8 mps 744 mmHg 83%
    04:00 0°C° 0.4 mm 8 mps 745 mmHg 80%
    05:00 -1°C° 0.4 mm 8 mps 746 mmHg 78%
    06:00 -1°C° 0.1 mm 7 mps 747 mmHg 76%
    07:00 -2°C° 0.1 mm 7 mps 749 mmHg 75%
    08:00 -2°C° 0.1 mm 7 mps 750 mmHg 74%
    09:00 -2°C° 0 mm 7 mps 751 mmHg 73%
    10:00 -1°C° 0 mm 7 mps 751 mmHg 72%
    11:00 -1°C° 0 mm 7 mps 752 mmHg 72%
    12:00 -1°C° 0 mm 7 mps 752 mmHg 74%
    13:00 -1°C° 0 mm 7 mps 752 mmHg 75%
    14:00 -1°C° 0 mm 7 mps 752 mmHg 77%
    15:00 0°C° 0.1 mm 7 mps 752 mmHg 78%
    16:00 0°C° 0.1 mm 7 mps 753 mmHg 80%
    17:00 0°C° 0.1 mm 7 mps 753 mmHg 81%
    18:00 0°C° 0.1 mm 8 mps 753 mmHg 81%
    19:00 0°C° 0.1 mm 8 mps 753 mmHg 81%
    20:00 0°C° 0.1 mm 8 mps 753 mmHg 81%
    21:00 -1°C° 0 mm 8 mps 753 mmHg 82%
    22:00 -1°C° 0 mm 8 mps 753 mmHg 83%
    23:00 -2°C° 0 mm 8 mps 752 mmHg 84%

    Tomorrow, 14 December, Thursday

    Time Temperature Precipitation Wind Pressure Humidity
    00:00 -2°C° 0 mm 8 mps 752 mmHg 84%
    01:00 -2°C° 0 mm 8 mps 752 mmHg 84%
    02:00 -4°C° 0 mm 8 mps 752 mmHg 84%
    03:00 -4°C° 0 mm 8 mps 751 mmHg 83%
    04:00 -4°C° 0 mm 8 mps 750 mmHg 81%
    05:00 -4°C° 0 mm 8 mps 750 mmHg 80%
    06:00 -4°C° 0 mm 9 mps 749 mmHg 78%
    07:00 -4°C° 0 mm 9 mps 749 mmHg 77%
    08:00 -4°C° 0 mm 9 mps 748 mmHg 75%
    09:00 -4°C° 0 mm 10 mps 748 mmHg 74%
    10:00 -4°C° 0 mm 10 mps 747 mmHg 72%
    11:00 -4°C° 0 mm 10 mps 746 mmHg 71%
    12:00 -4°C° 0 mm 10 mps 746 mmHg 71%
    13:00 -4°C° 0 mm 9 mps 745 mmHg 71%
    14:00 -3°C° 0 mm 9 mps 744 mmHg 71%
    15:00 -4°C° 0.2 mm 10 mps 743 mmHg 74%
    16:00 -4°C° 0.2 mm 10 mps 743 mmHg 77%
    17:00 -4°C° 0.2 mm 10 mps 742 mmHg 80%
    18:00 -3°C° 0.3 mm 9 mps 742 mmHg 80%
    19:00 -3°C° 0.3 mm 9 mps 741 mmHg 81%
    20:00 -3°C° 0.3 mm 9 mps 740 mmHg 81%
    21:00 -2°C° 0.4 mm 8 mps 740 mmHg 83%
    22:00 -2°C° 0.4 mm 7 mps 740 mmHg 85%
    23:00 -1°C° 0.4 mm 6 mps 740 mmHg 87%

    Day after tomorrow, 15 December, Friday

    Time Temperature Precipitation Wind Pressure Humidity
    00:00 -1°C° 0.3 mm 6 mps 740 mmHg 87%
    01:00 -1°C° 0.3 mm 6 mps 740 mmHg 86%
    02:00 +1°C° 0.3 mm 6 mps 740 mmHg 86%
    03:00 -1°C° 0.1 mm 7 mps 741 mmHg 85%
    04:00 -1°C° 0.1 mm 7 mps 741 mmHg 85%
    05:00 -1°C° 0.1 mm 7 mps 741 mmHg 84%
    06:00 -1°C° 0 mm 8 mps 742 mmHg 83%
    07:00 -1°C° 0 mm 8 mps 742 mmHg 83%
    08:00 -2°C° 0 mm 8 mps 742 mmHg 83%
    09:00 -2°C° 0 mm 8 mps 743 mmHg 82%
    10:00 -2°C° 0 mm 8 mps 743 mmHg 82%
    11:00 -2°C° 0 mm 8 mps 743 mmHg 81%
    12:00 -2°C° 0 mm 8 mps 742 mmHg 81%
    13:00 -2°C° 0 mm 8 mps 742 mmHg 80%
    14:00 -2°C° 0 mm 8 mps 742 mmHg 80%
    15:00 -2°C° 0.1 mm 8 mps 742 mmHg 80%
    16:00 -2°C° 0.1 mm 8 mps 741 mmHg 80%
    17:00 -2°C° 0.1 mm 8 mps 741 mmHg 79%
    18:00 -2°C° 0.2 mm 7 mps 740 mmHg 82%
    19:00 -2°C° 0.2 mm 6 mps 740 mmHg 85%
    20:00 -2°C° 0.2 mm 6 mps 740 mmHg 87%
    21:00 -1°C° 0.3 mm 5 mps 739 mmHg 89%
    22:00 -1°C° 0.3 mm 4 mps 739 mmHg 90%
    23:00 -1°C° 0.3 mm 4 mps 739 mmHg 91%

    16 December, Saturday

    Time Temperature Precipitation Wind Pressure Humidity
    00:00 -1°C° 0.1 mm 4 mps 739 mmHg 92%
    01:00 -1°C° 0.1 mm 5 mps 740 mmHg 92%
    02:00 -1°C° 0.1 mm 5 mps 740 mmHg 92%
    03:00 -1°C° 0.1 mm 5 mps 740 mmHg 91%
    04:00 0°C° 0.1 mm 5 mps 741 mmHg 89%
    05:00 -1°C° 0.1 mm 6 mps 741 mmHg 87%
    06:00 -1°C° 0.1 mm 6 mps 741 mmHg 86%
    07:00 -1°C° 0.1 mm 6 mps 742 mmHg 85%
    08:00 -1°C° 0.1 mm 6 mps 742 mmHg 84%
    09:00 -1°C° 0.1 mm 6 mps 743 mmHg 85%
    10:00 -1°C° 0.1 mm 6 mps 743 mmHg 86%
    11:00 -2°C° 0.1 mm 6 mps 744 mmHg 87%
    12:00 -1°C° 0.1 mm 6 mps 744 mmHg 86%
    13:00 -1°C° 0.1 mm 6 mps 744 mmHg 85%
    14:00 +1°C° 0.1 mm 6 mps 744 mmHg 83%
    15:00 -1°C° 0.1 mm 6 mps 745 mmHg 85%
    16:00 0°C° 0.1 mm 5 mps 745 mmHg 86%
    17:00 0°C° 0.1 mm 5 mps 745 mmHg 87%
    18:00 0°C° 0 mm 5 mps 746 mmHg 88%
    19:00 -1°C° 0 mm 5 mps 746 mmHg 89%
    20:00 -1°C° 0 mm 5 mps 746 mmHg 89%
    21:00 -1°C° 0 mm 5 mps 747 mmHg 90%
    22:00 -1°C° 0 mm 5 mps 747 mmHg 90%
    23:00 -1°C° 0 mm 5 mps 747 mmHg 90%

    17 December, Sunday

    Time Temperature Precipitation Wind Pressure Humidity
    00:00 -1°C° 0.1 mm 5 mps 747 mmHg 90%
    01:00 -1°C° 0.1 mm 5 mps 747 mmHg 90%
    02:00 -1°C° 0.1 mm 5 mps 748 mmHg 90%
    03:00 -2°C° 0.1 mm 6 mps 748 mmHg 89%
    04:00 -2°C° 0.1 mm 6 mps 748 mmHg 89%
    05:00 -2°C° 0.1 mm 6 mps 748 mmHg 88%
    06:00 -2°C° 0.1 mm 6 mps 748 mmHg 88%
    07:00 -2°C° 0.1 mm 6 mps 749 mmHg 88%
    08:00 -2°C° 0.1 mm 6 mps 749 mmHg 88%
    09:00 -1°C° 0.4 mm 5 mps 750 mmHg 88%
    10:00 -1°C° 0.4 mm 5 mps 750 mmHg 87%
    11:00 0°C° 0.4 mm 5 mps 751 mmHg 87%
    12:00 0°C° 0.4 mm 5 mps 751 mmHg 86%
    13:00 0°C° 0.4 mm 5 mps 752 mmHg 86%
    14:00 0°C° 0.4 mm 5 mps 753 mmHg 85%
    15:00 0°C° 0.3 mm 5 mps 753 mmHg 87%
    16:00 0°C° 0.3 mm 5 mps 754 mmHg 88%
    17:00 -1°C° 0.3 mm 5 mps 754 mmHg 89%
    18:00 -1°C° 0.2 mm 5 mps 755 mmHg 90%
    19:00 -1°C° 0.2 mm 4 mps 756 mmHg 91%
    20:00 -2°C° 0.2 mm 4 mps 756 mmHg 92%
    21:00 -2°C° 0.1 mm 4 mps 757 mmHg 92%
    22:00 -3°C° 0.1 mm 4 mps 758 mmHg 92%
    23:00 -3°C° 0.1 mm 4 mps 758 mmHg 93%

    18 December, Monday

    Time Temperature Precipitation Wind Pressure Humidity
    00:00 -3°C° 0.1 mm 4 mps 759 mmHg 93%
    01:00 -3°C° 0.1 mm 4 mps 759 mmHg 93%
    02:00 -3°C° 0.1 mm 4 mps 760 mmHg 93%
    03:00 -2°C° 0 mm 3 mps 760 mmHg 93%
    04:00 -2°C° 0 mm 3 mps 761 mmHg 93%
    05:00 -2°C° 0 mm 3 mps 761 mmHg 93%
    06:00 -2°C° 0 mm 3 mps 762 mmHg 92%
    07:00 -4°C° 0 mm 3 mps 762 mmHg 91%
    08:00 -3°C° 0 mm 2 mps 763 mmHg 91%
    09:00 -2°C° 0 mm 2 mps 764 mmHg 89%
    10:00 -2°C° 0 mm 2 mps 764 mmHg 88%
    11:00 -2°C° 0 mm 2 mps 765 mmHg 87%
    12:00 -1°C° 0 mm 2 mps 765 mmHg 86%
    13:00 -1°C° 0 mm 2 mps 765 mmHg 84%
    14:00 -1°C° 0 mm 2 mps 765 mmHg 83%
    15:00 -2°C° 0 mm 2 mps 766 mmHg 84%
    16:00 -2°C° 0 mm 2 mps 766 mmHg 85%
    17:00 -3°C° 0 mm 2 mps 766 mmHg 86%
    18:00 -3°C° 0 mm 2 mps 767 mmHg 86%
    19:00 -3°C° 0 mm 2 mps 767 mmHg 86%
    20:00 -1°C° 0 mm 1 mps 767 mmHg 86%
    21:00 -3°C° 0 mm 2 mps 767 mmHg 86%
    22:00 -3°C° 0 mm 2 mps 768 mmHg 86%
    23:00 -4°C° 0 mm 3 mps 768 mmHg 86%
    Show more